Location: Waco, TX
(31.5480°N, 97.1670°W)
Time: 17:46:27
(UTC-06:00)

ISS - Pass Details

Date: 21 January 2019
Orbit: 404 x 410 km, 51.6° (Epoch: 24 January)

Event Time Altitude Azimuth Distance (km) Brightness Sun altitude
Rises 02:47:07 0° 321° (NW) 2,338 - -59.2°
Reaches altitude 10° 02:49:16 10° 328° (NNW) 1,474 - -58.8°
Maximum altitude 02:52:27 44° 42° (NE) 577 - -58.1°
Drops below altitude 10° 02:55:37 10° 116° (ESE) 1,466 - -57.5°
Sets 02:57:45 0° 123° (ESE) 2,323 - -57.0°
